Location: Lac Lasalle
(46.0398°N, 74.1576°W)
Time: 19:22:04
(UTC-05:00)

AO-73 - Pass Details

Date: 15 December 2019
Orbit: 581 x 664 km, 97.6° (Epoch: 21 January)

Event Time Altitude Azimuth Distance (km) Brightness Sun altitude
Rises 06:05:20 0° 17° (NNE) 2,847 ? -14.3°
Reaches altitude 10° 06:07:34 10° 22° (NNE) 1,931 ? -13.9°
Maximum altitude 06:11:40 53° 100° (E) 725 ? -13.2°
Drops below altitude 10° 06:15:40 10° 177° (S) 1,895 ? -12.6°
Sets 06:17:51 0° 182° (S) 2,788 ? -12.2°
